Theta_e
325 324 323 323 324 326 326 325 324 324 324 323 322 319 318 316 317 323 325 326 326 324 323 325 324 324 325 324 325 324 325 326 325 327 327 326 327 328 331 332 333 335 334 334 337 337 338 337 339 346 349 346 345 349 353 353 352 350 348 348 348 347 346 346 346 346 347 345 343 342 340 340 341 341 341 340 340 340 339 339 338 338 339 340 339 338
325 323 324 327 326 327 326 326 325 324 324 324 321 319 318 317 319 324 327 325 326 323 322 325 323 323 325 324 326 325 325 326 325 326 327 326 327 330 332 332 331 333 333 335 338 336 336 337 338 344 348 345 341 344 350 352 351 350 348 348 348 347 346 346 346 346 345 345 345 345 344 343 342 342 342 342 341 341 341 340 338 337 338 339 339 339
324 323 326 327 326 325 326 325 325 324 324 324 322 319 315 318 321 323 326 326 325 322 321 324 322 322 325 325 326 326 326 327 327 326 326 327 327 329 331 331 331 334 334 336 337 336 335 337 337 340 344 344 342 344 349 352 351 350 349 348 348 347 346 345 346 346 344 344 345 345 345 345 344 344 343 343 343 342 342 340 338 338 338 339 340 339
319 322 327 327 326 326 325 324 324 324 324 323 322 316 314 319 319 316 321 326 325 323 322 323 322 322 326 326 326 327 327 326 327 326 326 327 327 331 330 331 333 335 338 338 337 338 340 340 341 343 344 344 343 345 345 347 350 350 348 348 348 347 346 346 345 346 344 344 345 344 345 345 345 344 343 344 343 342 342 339 339 339 339 340 340 340
320 323 325 325 325 325 323 324 324 321 320 322 323 318 316 320 320 318 321 325 323 323 324 323 317 317 323 327 326 326 327 327 327 326 327 327 328 332 331 331 333 336 340 339 337 342 346 344 346 348 346 342 341 343 340 341 347 350 348 348 348 347 346 345 345 345 345 344 344 344 345 346 345 345 344 344 342 342 342 340 339 339 339 340 340 340
324 325 324 324 325 324 324 323 324 322 317 318 324 323 322 323 321 322 323 321 317 316 321 321 312 313 321 325 325 327 327 327 327 326 327 327 329 331 331 332 333 335 337 339 339 343 347 347 348 349 346 342 341 342 341 339 341 345 349 349 348 347 346 346 345 345 345 344 344 345 345 346 346 346 345 344 343 342 342 341 340 340 340 340 340 339
324 325 325 324 324 324 325 322 324 324 318 315 322 324 324 323 321 321 320 317 312 312 321 323 314 312 317 321 326 328 327 328 327 326 328 326 328 330 328 330 332 333 334 336 339 343 346 346 346 346 345 344 343 342 343 343 339 340 346 349 348 347 346 346 345 345 345 345 344 344 345 346 346 346 345 344 344 342 342 341 340 341 340 339 339 339
324 324 323 324 325 324 323 321 323 324 318 315 321 323 323 323 321 321 320 316 315 316 320 323 318 313 313 320 327 329 326 327 327 327 328 327 330 330 328 329 330 332 333 333 338 343 347 346 345 345 344 344 343 341 342 345 343 339 342 346 348 347 346 345 345 345 345 346 344 344 345 346 346 346 345 345 344 343 342 342 341 341 340 340 340 340
324 323 323 323 323 322 322 322 323 323 320 319 322 322 321 323 322 323 320 317 317 317 312 317 319 315 313 320 329 329 325 326 328 329 329 330 331 331 330 330 329 331 332 333 339 343 344 345 344 343 343 343 343 342 341 343 344 341 339 341 346 348 346 345 345 345 345 345 345 345 345 345 345 346 345 345 344 344 343 343 342 341 341 341 340 340
323 322 323 324 322 322 322 324 323 322 321 321 322 322 322 323 323 323 322 317 316 314 311 314 316 314 314 317 323 326 324 325 327 329 331 332 332 331 330 330 330 331 331 334 338 339 340 341 341 342 344 343 343 343 342 343 345 342 337 337 343 347 347 345 345 345 344 344 345 345 345 345 345 346 345 345 345 344 344 343 342 342 342 341 340 340
323 323 324 324 324 323 323 323 322 322 322 322 322 322 321 322 323 323 320 317 315 314 313 314 315 315 314 314 319 325 326 326 329 330 331 333 331 331 330 329 329 330 330 332 335 335 336 338 339 340 344 344 343 343 343 344 346 345 341 339 342 345 347 346 345 345 344 344 344 345 345 345 345 345 344 344 345 344 344 344 343 342 342 341 340 340
323 324 323 323 324 323 324 323 322 322 321 321 322 320 317 317 318 317 316 316 315 313 313 315 316 315 312 314 322 329 332 332 334 333 334 333 330 329 329 328 328 330 330 331 334 335 336 337 336 338 341 343 344 344 344 344 345 346 345 343 341 343 346 346 344 345 345 345 344 344 344 345 345 344 344 344 345 343 344 344 343 343 343 342 341 340
322 323 323 323 322 322 323 321 320 321 321 320 319 316 314 313 314 315 314 314 314 313 314 316 316 314 313 316 324 332 334 334 334 333 332 330 330 329 328 327 327 328 329 330 334 335 336 336 335 336 336 338 341 343 344 344 344 345 345 344 342 341 342 342 342 343 344 345 344 343 343 344 344 344 344 344 344 343 343 343 343 344 343 342 342 341
319 323 323 323 322 322 322 319 315 317 319 319 316 313 313 313 314 317 316 315 315 314 314 316 315 313 313 317 325 332 333 333 332 330 330 330 330 330 327 326 326 326 326 326 329 333 334 336 336 335 335 335 337 339 342 344 344 344 344 341 337 336 336 336 337 338 339 341 343 343 343 343 344 344 344 344 343 343 342 342 343 343 343 343 342 342
315 316 320 322 321 320 321 319 318 318 318 318 318 316 313 312 315 317 315 314 316 314 313 315 316 313 312 318 326 331 331 331 331 329 330 329 328 328 326 325 325 324 324 324 325 328 331 334 336 336 336 336 336 337 339 341 343 343 343 339 334 333 333 334 334 335 336 337 337 339 340 341 344 344 344 343 342 343 342 342 342 343 342 342 341 342
313 314 320 322 320 320 320 320 321 319 316 317 319 316 313 313 315 314 314 314 314 314 314 313 314 316 318 323 328 330 329 330 330 330 330 328 327 327 326 325 325 325 324 323 324 324 326 328 331 333 335 336 336 337 338 339 340 341 342 340 336 334 333 333 332 333 334 334 335 335 335 337 340 343 344 343 342 342 342 342 342 342 342 342 342 341
314 316 321 322 320 320 320 320 320 318 315 316 316 313 314 318 316 313 312 313 313 315 315 314 314 316 318 324 329 330 329 329 328 328 327 326 325 324 324 324 323 323 323 322 322 321 322 324 326 327 329 332 334 335 335 336 337 338 340 340 337 335 335 334 333 333 333 334 334 334 334 334 336 339 342 343 342 342 342 342 342 342 342 342 342 341
317 317 321 322 320 319 320 320 319 319 319 317 314 314 318 319 317 315 313 313 314 315 315 313 313 314 313 318 326 328 327 327 326 325 323 322 321 321 320 320 320 320 320 320 319 319 321 323 324 324 325 325 328 329 330 333 335 336 339 339 338 336 336 335 334 333 334 334 334 334 334 334 334 335 338 341 342 341 341 341 341 342 342 343 342 341
319 316 319 321 320 320 320 319 317 319 320 319 318 318 317 314 314 314 314 314 315 316 315 312 312 313 312 315 322 325 325 326 325 322 321 320 320 319 318 318 318 318 318 317 317 318 319 320 321 322 323 323 323 324 326 329 331 333 335 337 337 335 334 334 333 333 333 334 334 333 333 333 334 334 335 337 339 340 341 341 341 342 342 342 342 341
320 319 319 321 319 319 318 316 315 317 321 321 319 320 317 315 313 313 313 314 315 317 316 314 314 312 313 317 322 323 324 323 322 321 320 319 318 317 316 316 315 315 316 316 315 316 317 318 319 319 320 320 320 322 323 324 326 329 332 332 333 334 334 333 332 332 333 334 333 333 333 333 334 334 335 335 335 336 339 340 340 341 342 342 342 341
320 321 320 321 319 317 316 317 317 318 318 318 316 315 315 315 315 316 315 312 313 315 315 317 317 314 316 320 321 321 321 320 319 319 317 317 316 316 315 315 314 314 314 315 315 315 315 317 317 316 316 317 318 319 319 320 322 324 328 329 330 331 333 333 332 331 332 333 332 332 332 333 334 334 335 335 335 335 337 337 337 339 341 342 341 341
320 321 320 318 316 315 316 319 320 319 319 317 315 315 315 316 316 316 317 314 313 314 314 316 317 314 317 319 319 319 319 318 317 317 316 315 315 315 314 314 314 314 313 314 314 313 314 315 315 315 314 315 315 316 317 319 319 320 322 325 327 329 331 332 332 331 331 330 330 330 331 331 332 333 334 335 335 336 336 336 336 337 339 340 340 340
318 319 318 317 316 316 319 320 319 319 319 317 317 318 318 318 315 314 316 316 314 314 313 314 315 317 318 318 317 319 318 316 316 315 315 314 313 313 313 312 313 313 312 312 312 312 313 314 314 314 313 313 314 314 315 317 318 318 318 319 322 325 328 330 331 330 330 330 329 329 329 329 330 332 334 334 335 336 336 336 337 336 337 338 337 338
316 318 317 316 316 316 318 318 319 319 318 318 318 318 318 318 315 315 316 315 315 315 314 316 317 317 317 317 317 317 317 316 315 314 313 313 313 312 312 311 311 311 311 310 311 311 312 312 312 312 313 312 312 312 313 314 315 316 316 316 318 319 323 328 328 327 330 331 330 329 329 329 330 330 332 334 335 336 335 336 336 336 336 337 335 334
314 315 316 316 316 316 316 315 316 318 318 318 318 318 318 317 316 316 315 314 316 314 313 316 317 315 315 317 316 315 316 315 314 313 312 312 312 311 311 311 310 310 309 308 309 309 309 309 310 311 311 310 311 311 312 312 312 313 314 315 315 315 317 322 325 326 328 330 330 330 330 331 331 330 331 333 334 335 335 335 335 335 336 336 335 333
313 315 316 317 318 318 317 314 314 317 318 317 317 316 317 315 315 316 314 314 316 314 313 315 315 313 314 316 315 314 315 313 313 313 311 311 310 310 310 310 309 309 308 307 308 308 308 308 309 310 311 310 310 310 310 310 310 311 312 313 313 313 314 317 321 324 326 328 329 329 330 331 331 331 332 333 334 334 334 334 335 335 335 336 336 335
313 315 316 317 318 317 316 316 317 317 316 315 316 315 315 316 315 315 314 315 315 315 314 314 313 313 314 315 314 314 313 313 312 311 310 310 310 309 309 309 309 309 308 307 307 307 307 307 308 308 309 309 309 307 307 309 310 310 311 312 312 312 313 315 319 321 322 325 326 326 328 329 329 331 332 332 334 334 333 334 334 334 333 334 335 336
315 316 317 318 318 317 316 317 317 317 315 315 316 315 315 315 315 315 316 316 315 315 316 316 314 315 315 313 313 313 312 311 310 309 310 309 309 309 308 308 307 307 307 306 306 306 306 307 308 308 308 307 307 307 306 307 309 309 310 311 311 310 312 315 318 319 320 321 321 321 325 328 328 330 331 331 333 334 334 334 334 333 333 332 334 335
316 317 318 317 316 316 316 316 315 316 316 316 315 315 315 315 315 316 316 315 314 315 316 315 314 314 314 313 312 311 310 309 309 309 308 307 307 308 307 306 306 306 306 305 304 305 306 306 307 308 307 306 306 307 306 306 307 309 308 310 311 310 311 313 316 317 319 320 320 319 322 325 327 329 330 330 330 331 333 332 332 332 332 332 332 333
316 316 316 315 315 315 315 315 314 314 314 314 314 314 314 314 315 315 315 314 314 314 314 313 314 314 312 311 310 310 309 308 308 307 307 307 306 306 306 306 305 305 305 304 304 305 305 306 306 306 306 306 305 306 305 305 306 307 308 308 309 309 310 312 313 316 318 320 321 319 320 322 324 325 327 329 329 329 330 331 331 331 331 332 332 331
316 315 314 315 315 315 314 313 313 313 313 313 313 313 313 314 314 314 314 314 314 314 312 312 312 312 311 310 309 308 308 307 307 306 306 306 306 306 306 305 304 304 304 304 304 305 305 306 306 306 305 305 305 305 305 305 305 305 306 307 307 309 310 311 311 313 316 319 321 319 317 318 321 323 325 328 329 328 329 331 332 331 331 331 331 330
315 315 315 315 315 315 314 313 313 313 313 313 313 313 313 313 313 314 314 313 313 312 311 311 310 309 309 309 308 307 307 306 306 306 306 306 306 306 306 305 305 305 305 304 305 305 306 306 306 306 305 304 305 305 305 305 304 305 306 307 308 309 309 309 309 311 314 319 320 319 316 315 319 323 323 325 328 328 328 330 331 330 330 329 329 331
313 314 313 313 314 314 313 313 313 313 313 313 314 314 314 314 314 313 312 311 310 310 310 309 308 307 307 307 307 307 307 307 306 306 306 306 306 305 305 305 305 305 305 305 305 305 306 306 306 306 306 305 305 305 305 305 304 304 306 307 307 308 308 308 309 310 314 318 319 319 318 318 320 321 319 320 324 327 329 329 330 329 328 328 330 330
312 312 312 312 313 313 313 313 313 313 313 313 314 314 313 312 310 310 309 309 309 308 308 307 306 306 306 307 306 306 306 306 306 306 306 306 306 306 305 305 305 305 305 305 305 305 306 306 306 306 306 306 305 305 305 305 304 304 306 306 306 306 307 308 309 310 314 318 319 318 319 321 322 320 317 315 320 325 328 328 329 329 328 329 331 330
311 311 312 312 313 313 313 312 312 313 313 313 312 311 310 308 308 307 307 307 307 306 306 305 305 305 306 306 306 306 306 306 306 306 306 305 306 306 306 305 305 305 305 305 305 306 307 307 306 305 306 306 306 306 306 305 305 305 305 306 305 305 306 308 309 311 313 317 319 318 318 319 320 319 317 317 320 324 325 326 328 329 329 331 331 330
310 311 311 311 312 312 312 311 312 313 312 311 311 310 309 308 307 307 306 306 305 305 305 305 305 306 306 306 306 306 306 306 306 306 305 306 306 306 306 306 306 306 305 306 306 306 306 306 305 305 305 306 306 306 306 306 305 305 306 306 305 305 306 308 309 312 313 316 318 318 318 318 317 316 315 318 323 322 319 320 323 325 328 330 331 331
310 310 311 312 312 311 311 311 311 312 311 311 310 309 308 307 306 306 306 306 305 305 305 305 306 307 306 306 306 306 306 306 306 306 306 306 306 306 306 307 307 307 307 306 306 306 306 305 305 305 306 306 306 305 305 305 305 305 306 306 305 305 306 307 309 311 313 315 318 318 317 317 317 317 316 319 321 318 316 317 319 319 322 325 328 330
310 311 311 312 311 310 310 310 311 311 310 309 309 308 307 307 306 305 305 305 305 305 306 306 307 308 307 306 306 306 307 306 306 306 306 306 307 307 307 306 307 307 306 306 306 305 305 304 304 306 306 306 305 305 305 306 305 305 306 306 305 305 306 307 308 308 308 312 316 318 318 317 316 317 317 318 318 317 317 316 317 317 317 318 320 323
311 311 311 311 311 310 310 310 310 310 309 309 308 308 307 307 306 305 305 305 305 306 307 307 308 307 307 306 307 307 307 306 306 306 306 307 307 306 306 306 307 306 306 305 306 306 305 304 303 305 307 307 306 306 305 306 306 306 306 306 306 306 306 306 306 306 305 307 314 318 318 317 316 316 317 318 317 316 316 315 315 316 316 316 317 318
312 312 311 310 310 310 310 310 309 309 309 309 308 307 307 306 305 305 304 304 305 307 307 306 307 306 306 307 307 306 306 306 306 306 306 306 306 307 307 307 307 307 306 306 306 305 305 305 304 304 305 306 306 306 305 306 306 306 307 306 306 306 306 305 304 304 304 306 311 317 316 315 315 315 315 315 314 314 313 313 314 314 314 314 316 316
312 311 310 310 310 310 310 310 309 309 309 309 308 307 306 306 305 304 305 305 306 307 306 306 306 306 307 307 306 306 306 306 306 306 306 306 306 306 307 307 307 306 306 305 305 305 305 305 304 304 304 304 304 305 305 306 307 307 306 306 306 306 305 303 303 304 304 307 311 315 315 314 314 315 313 310 309 309 309 309 310 312 312 312 313 314
312 312 311 311 311 310 310 309 308 308 309 308 307 307 306 305 304 305 306 306 306 306 306 307 307 307 307 306 306 307 306 306 307 307 306 307 306 306 307 307 307 306 305 303 304 305 305 305 305 304 304 304 304 304 305 306 307 307 306 305 306 306 304 302 303 304 304 307 311 313 314 315 315 314 312 310 308 307 307 306 307 309 310 311 312 314
312 311 311 310 309 308 308 308 307 308 308 308 306 306 306 305 305 305 306 306 306 306 306 307 307 307 306 306 307 307 307 307 307 307 307 307 306 306 307 306 304 304 304 304 305 305 305 304 305 304 304 303 304 304 304 306 307 306 306 305 306 306 303 302 303 303 303 307 311 311 312 314 314 313 313 313 311 310 309 307 307 308 309 309 312 313
310 309 309 308 308 307 307 307 308 308 308 306 306 305 306 306 306 307 307 306 306 307 307 306 307 306 307 307 307 307 307 307 307 307 307 307 306 307 308 305 302 304 305 305 305 305 304 304 305 305 304 304 304 304 304 306 306 306 306 305 306 305 303 301 302 303 303 306 311 312 312 313 314 312 312 313 313 312 312 311 311 311 310 310 311 313
308 308 308 307 307 307 306 307 307 307 306 306 306 306 306 307 307 308 307 306 307 307 306 306 307 307 306 307 307 307 307 307 307 307 307 307 306 306 308 307 305 305 306 306 306 305 305 304 305 304 304 304 304 304 304 305 306 306 306 305 305 304 302 301 302 303 303 305 309 312 313 314 313 313 312 312 313 313 313 313 313 313 313 313 312 312
307 307 307 306 306 307 306 306 306 306 306 306 307 307 307 307 307 307 307 307 307 306 306 306 307 307 307 307 307 308 307 307 307 308 307 306 306 307 307 307 307 306 306 305 305 305 305 304 304 304 304 304 304 304 304 304 306 307 306 305 303 302 302 302 303 304 303 304 307 311 313 314 313 313 314 313 313 313 313 313 313 313 312 313 312 312
307 307 307 305 305 306 305 305 306 306 307 307 306 307 307 307 307 307 307 307 307 307 307 307 307 307 307 307 308 308 307 307 308 309 307 306 306 307 308 308 307 307 306 305 305 304 304 305 304 304 304 304 304 304 304 304 305 307 306 304 303 302 302 302 303 304 303 303 306 310 313 313 313 313 314 314 314 314 314 314 314 314 314 313 312 313
306 306 306 305 305 305 305 305 306 306 307 307 306 307 307 306 306 306 307 307 307 307 307 307 307 308 307 307 308 308 307 307 309 309 308 307 307 306 307 307 307 306 305 305 304 304 304 304 304 304 304 305 305 304 304 304 305 307 305 303 303 302 302 302 303 304 303 303 305 309 312 312 312 312 313 313 314 313 313 314 314 315 315 313 312 312
305 304 305 305 305 305 305 305 306 307 307 307 306 306 307 306 306 307 307 307 307 307 307 307 308 308 308 307 307 307 307 308 309 308 307 307 307 306 307 308 307 306 305 305 304 304 304 304 304 304 305 305 304 304 304 304 305 306 305 303 302 303 302 303 303 304 303 304 305 306 307 309 310 311 311 312 312 311 312 312 311 311 313 313 313 312
305 304 304 304 304 304 305 306 307 307 306 306 306 306 306 306 307 307 307 307 307 307 307 306 306 306 307 306 306 307 306 307 308 308 307 307 307 306 307 307 306 305 305 304 304 304 303 304 304 304 304 304 304 304 304 304 305 306 305 303 303 303 303 303 304 304 303 303 304 304 305 306 307 308 308 308 309 309 310 309 308 308 309 311 312 312
304 304 304 304 304 305 305 306 306 306 306 306 306 306 306 307 307 308 308 307 307 306 305 305 305 305 305 306 306 306 306 306 307 308 308 307 306 306 306 306 305 305 305 304 304 303 303 304 304 304 304 304 304 304 305 304 304 306 305 303 302 303 303 304 304 303 303 303 303 303 304 305 305 306 306 306 306 306 307 308 308 308 307 309 309 310
Wind_Speed
6 5 6 7 8 7 8 10 13 14 13 13 13 11 12 11 9 11 12 10 10 9 11 11 10 11 12 13 14 14 13 13 12 11 8 7 6 3 7 10 11 9 9 10 12 13 12 11 8 4 5 4 13 16 16 15 16 17 17 17 18 20 21 22 23 23 25 27 28 28 27 27 27 26 25 24 23 21 21 23 24 22 21 21 22 23
5 6 8 11 9 10 10 10 12 12 11 11 11 10 10 9 9 11 12 12 11 8 11 15 15 14 13 12 13 13 13 12 12 11 9 8 5 4 13 14 11 10 9 8 8 7 8 9 8 3 6 5 10 18 17 14 15 16 16 17 17 20 22 22 23 24 24 24 24 25 26 26 25 25 26 25 24 21 19 21 24 25 24 21 22 23
6 6 10 10 6 10 9 9 11 11 12 11 9 9 9 7 9 11 10 10 11 8 10 16 16 14 14 13 13 12 12 10 8 9 8 6 2 8 13 11 10 10 8 5 5 5 5 5 5 3 4 6 9 18 18 15 16 16 16 16 17 19 22 22 23 23 23 23 22 22 23 24 23 23 25 23 23 22 20 22 24 24 24 22 21 22
7 6 9 6 5 8 11 10 11 11 9 10 8 8 8 8 10 9 8 12 12 10 13 16 14 12 12 10 9 10 10 7 5 7 5 4 2 10 13 11 11 10 8 7 7 6 8 6 5 6 2 2 7 15 15 14 17 17 16 16 17 19 21 22 23 23 23 22 21 20 21 22 21 21 22 20 20 23 22 22 24 23 23 23 23 22
8 9 10 10 6 8 11 10 12 10 7 10 11 8 7 11 13 12 13 14 13 13 14 16 12 7 8 8 7 8 9 8 6 6 3 1 6 14 15 11 11 11 9 10 11 10 12 11 6 8 5 4 9 15 17 17 17 17 16 17 18 19 20 21 23 24 23 22 21 19 19 20 19 19 21 19 19 22 22 23 25 25 24 24 24 23
9 11 8 7 7 8 10 10 12 12 7 10 12 10 10 14 16 17 17 14 10 9 10 11 9 6 8 10 8 6 7 7 6 6 4 3 7 12 13 10 10 10 8 9 11 11 11 11 10 10 6 4 10 15 16 18 18 17 17 19 19 19 20 20 22 24 23 22 22 20 19 20 18 17 19 20 20 22 23 23 25 26 26 26 24 23
8 11 8 8 8 5 8 10 12 13 9 7 12 15 16 17 17 18 18 13 8 8 10 11 9 7 7 9 9 6 6 6 6 7 5 3 7 8 9 9 9 9 8 8 10 11 11 10 11 9 6 5 9 13 11 13 17 19 18 19 20 20 20 20 21 24 23 23 23 22 20 20 19 17 19 21 22 22 23 22 24 26 27 28 25 24
6 12 12 11 11 6 7 9 10 14 9 8 14 18 18 18 17 18 16 12 9 10 12 13 10 7 6 8 9 6 4 4 2 3 3 7 11 9 8 8 7 8 7 7 9 10 10 9 10 10 11 11 11 14 12 9 13 19 20 18 20 21 21 21 21 24 24 23 23 24 22 21 22 20 20 22 22 22 23 22 24 25 26 27 26 25
10 13 12 12 10 7 7 8 13 16 11 11 16 17 16 16 16 17 13 10 11 10 8 9 9 6 5 6 5 4 4 3 1 4 8 11 11 9 7 8 8 7 8 9 10 10 9 9 10 11 12 14 14 14 13 11 12 17 19 19 19 21 22 22 22 24 25 25 23 23 23 22 23 23 22 22 23 23 23 23 24 24 25 26 26 25
11 11 10 10 8 5 8 11 14 14 12 13 16 16 15 16 16 14 11 10 10 9 7 9 9 6 5 5 3 2 3 4 4 5 9 10 9 7 6 7 8 9 10 12 11 11 11 11 13 15 16 17 17 16 14 13 11 13 17 21 22 21 23 23 23 24 25 25 24 24 24 24 23 23 23 22 23 24 24 24 24 24 24 26 26 25
13 11 8 6 4 4 8 11 13 13 14 14 13 12 13 13 10 9 9 8 7 7 7 9 9 7 6 3 3 4 4 5 5 5 7 8 9 9 7 8 9 9 9 9 10 11 12 14 17 19 18 19 19 19 17 16 13 10 15 20 22 22 23 23 24 25 26 26 26 25 25 25 25 24 22 22 23 24 24 23 24 25 25 25 26 26
11 6 4 3 4 5 6 8 11 12 14 13 9 9 9 8 7 6 6 6 5 6 7 8 10 9 5 3 5 7 10 10 9 9 10 12 12 11 10 11 10 10 9 9 9 11 11 11 15 17 17 17 18 19 19 19 17 14 13 16 21 24 25 24 24 25 25 26 26 26 25 25 25 24 23 21 21 23 24 24 24 25 24 24 25 26
9 6 3 5 7 8 7 7 9 9 10 10 8 8 7 5 5 5 6 5 5 6 6 11 14 10 6 6 7 9 11 12 12 12 12 13 12 11 12 12 10 11 11 10 9 10 9 9 11 13 15 17 18 19 20 21 20 19 17 17 20 23 23 22 22 21 23 25 26 25 25 25 25 24 23 22 22 22 24 24 24 24 24 24 24 25
5 5 8 4 5 9 8 7 7 7 8 9 8 6 6 7 5 5 6 5 6 7 9 15 16 8 5 8 8 11 13 12 12 11 11 12 11 10 11 11 11 11 12 10 9 9 8 8 9 11 14 16 18 19 20 21 21 22 22 19 18 22 26 26 23 23 22 23 25 25 24 24 24 24 24 23 22 22 23 23 23 23 24 23 23 25
7 3 7 6 6 9 9 8 7 9 9 9 8 7 7 5 5 5 6 6 7 9 11 13 11 6 5 8 9 9 12 11 10 10 9 9 9 8 9 10 10 11 12 12 11 11 10 9 9 10 13 15 17 19 21 21 21 24 22 16 15 19 26 29 26 25 27 25 23 23 24 25 23 22 23 22 22 21 20 22 23 23 23 22 22 23
9 6 5 9 9 10 9 7 8 10 8 6 7 7 6 5 5 6 7 9 10 9 9 7 4 6 6 6 10 9 9 10 9 8 7 7 9 10 10 11 11 12 13 14 14 14 15 14 15 14 13 13 16 18 20 21 23 25 21 17 17 18 21 27 24 22 26 27 27 26 25 27 24 22 21 21 21 19 18 19 20 21 22 22 21 21
6 8 10 13 12 11 10 9 9 8 6 6 7 7 7 10 8 7 6 8 9 7 6 5 5 7 6 4 13 13 10 9 8 10 12 14 15 15 14 14 14 14 14 15 15 15 16 18 21 22 20 18 17 17 19 21 24 26 22 20 22 19 18 22 23 24 26 26 28 26 27 30 29 25 23 21 21 20 19 19 19 20 21 21 21 21
5 7 11 14 12 10 11 11 12 12 10 7 7 6 8 10 8 5 5 5 6 7 5 6 8 8 7 2 9 11 8 7 10 14 16 17 17 16 14 14 15 16 16 16 17 17 16 17 20 25 27 27 26 26 25 23 24 26 22 21 22 20 19 22 24 24 24 24 26 26 24 26 29 29 27 23 22 21 20 19 18 19 20 21 21 21
6 7 8 9 10 10 10 10 12 12 10 7 6 7 6 7 6 4 5 5 7 8 5 7 10 7 6 4 5 8 7 10 13 15 15 16 15 14 14 15 16 16 15 16 16 15 14 16 20 24 27 29 31 32 32 29 27 27 25 21 19 18 19 22 22 21 21 23 23 23 24 23 26 30 29 24 21 20 21 21 18 18 19 20 21 21
5 5 5 6 10 12 10 7 9 6 2 2 5 7 6 6 7 6 5 5 7 8 7 9 9 5 5 4 8 12 13 14 14 13 12 13 14 13 12 13 14 14 13 14 14 14 14 16 21 25 26 28 29 30 32 33 32 30 28 25 22 20 19 19 19 18 18 19 21 20 20 21 22 25 27 25 23 22 20 19 18 18 19 20 20 20
4 4 5 7 9 11 8 6 6 6 5 6 6 7 7 6 7 7 6 6 7 7 7 7 8 5 3 7 10 14 15 13 12 12 10 11 12 12 12 12 12 12 13 12 12 13 13 15 21 25 26 27 28 30 32 33 33 31 30 28 25 24 21 18 18 17 14 13 15 17 15 16 18 20 23 25 23 22 21 17 16 17 18 20 21 20
2 3 5 8 7 7 8 8 11 10 7 6 6 7 7 5 6 6 6 6 6 7 7 7 10 8 3 8 10 10 13 11 12 11 9 10 11 12 11 12 11 10 11 12 12 13 12 13 19 23 24 25 26 27 29 31 31 31 32 30 27 25 23 20 19 19 17 12 11 14 15 16 19 20 22 24 23 23 23 22 20 18 18 20 21 20
4 4 5 8 8 9 13 15 15 13 7 5 7 8 6 5 5 5 6 7 6 8 9 8 10 10 4 8 9 6 13 12 11 10 10 9 10 11 11 12 11 10 11 11 11 12 12 14 17 19 20 22 22 24 24 26 28 29 30 31 30 29 28 23 20 21 19 15 13 14 16 19 22 23 23 22 23 24 26 26 25 22 19 19 19 20
2 4 5 7 8 9 14 15 12 10 6 5 6 6 5 5 6 6 7 8 7 9 9 7 10 10 5 7 9 2 8 7 9 11 10 10 9 10 11 12 11 11 12 12 11 9 11 16 17 16 18 20 22 24 23 22 24 25 27 28 30 33 33 27 24 24 20 15 14 14 16 19 22 22 21 20 21 24 25 26 26 24 21 20 20 21
2 4 4 7 7 6 8 8 4 5 3 4 6 7 8 9 11 10 9 7 7 11 12 10 10 9 6 7 11 10 9 11 11 10 10 9 10 11 11 11 12 12 12 14 13 11 12 14 14 16 19 20 21 23 25 24 24 24 25 25 26 30 33 32 30 29 24 18 14 13 14 15 17 20 20 18 18 22 24 25 26 25 22 20 21 21
3 5 4 5 7 6 5 5 3 3 4 6 8 11 12 12 13 11 8 7 8 11 13 11 9 11 12 12 14 15 16 18 18 13 9 9 11 12 12 11 11 12 13 14 14 12 12 11 12 16 20 22 23 24 25 26 26 24 24 25 25 26 29 33 33 31 28 21 14 12 13 12 13 17 19 16 16 18 20 22 23 23 22 19 19 18
4 5 7 9 9 8 9 9 10 11 10 11 13 15 14 13 14 11 7 8 9 10 12 13 13 15 15 15 16 17 17 17 17 15 14 13 12 13 14 13 11 11 13 14 13 12 13 12 11 13 17 20 24 26 26 25 26 25 23 24 26 26 26 30 32 32 30 23 15 14 13 13 13 17 18 16 16 16 17 19 20 21 23 20 16 15
4 6 8 11 13 12 14 15 15 14 14 15 16 16 15 15 15 12 10 11 11 10 12 13 15 17 16 16 18 18 18 17 17 15 13 13 13 13 14 15 15 14 14 14 13 13 13 13 11 12 15 19 22 26 27 25 25 25 23 23 25 26 26 27 29 32 33 29 21 17 15 13 14 16 18 18 17 15 15 16 18 20 23 22 16 14
4 6 8 11 14 15 15 16 16 14 14 16 17 18 18 17 16 14 15 15 13 12 13 15 19 20 17 17 18 18 16 16 17 16 14 14 16 15 15 16 17 17 16 17 16 14 13 12 10 10 14 18 20 23 26 26 25 25 24 23 24 26 26 26 27 30 33 31 28 22 15 13 14 15 16 17 18 16 13 14 17 19 20 19 16 13
2 5 7 10 13 14 15 16 17 17 17 17 18 18 17 15 15 16 16 17 17 17 18 20 22 21 15 14 16 15 14 13 14 14 14 16 17 16 15 16 16 16 17 18 17 15 14 12 11 11 14 17 19 21 24 25 25 24 25 25 24 25 27 27 27 29 31 31 30 27 16 9 11 15 15 13 14 16 15 14 16 17 17 14 13 12
2 4 6 8 10 12 14 16 17 17 17 17 16 16 16 16 17 18 16 15 15 16 17 19 19 15 12 13 14 13 13 14 15 15 16 16 16 16 16 17 18 17 18 19 18 17 15 13 12 12 14 17 19 21 22 23 25 25 26 26 25 24 25 27 28 28 30 33 30 26 19 7 7 11 13 12 11 12 14 14 13 14 14 10 7 8
4 5 7 7 8 10 11 13 16 15 14 16 17 17 17 16 14 13 11 10 11 12 14 15 14 11 10 12 14 15 15 16 17 17 16 15 16 17 17 19 19 19 19 20 19 18 16 15 14 13 15 18 20 21 22 22 24 24 24 26 25 24 26 27 28 28 30 33 30 24 22 13 4 5 9 11 11 9 11 12 11 11 12 9 5 7
5 6 6 6 8 9 10 12 14 12 11 12 10 9 9 9 9 10 9 10 11 11 10 10 10 11 13 14 15 16 17 16 16 16 15 16 18 18 18 19 20 20 21 20 18 17 16 16 16 15 17 20 21 21 22 22 23 23 23 25 26 25 26 27 26 27 29 31 29 26 23 16 8 4 4 10 13 8 5 8 9 9 9 7 7 8
7 8 6 6 7 9 11 12 11 10 10 6 1 3 7 9 10 11 10 10 10 9 8 10 13 14 15 15 15 16 16 16 16 16 16 16 16 16 19 21 20 19 20 18 15 16 15 15 18 20 20 21 22 22 22 21 22 22 22 24 26 25 26 26 24 25 28 29 28 28 25 16 9 9 9 5 8 8 4 0 3 4 5 5 2 4
8 8 6 5 7 8 9 9 8 8 6 1 2 4 6 6 7 9 10 10 11 12 13 14 16 16 16 15 15 16 16 16 17 18 19 18 16 17 18 19 18 17 17 15 13 13 14 15 19 22 22 22 22 22 21 20 21 22 22 23 25 26 25 25 24 24 26 27 26 27 26 19 10 8 12 13 7 5 8 9 6 5 6 6 4 3
8 7 6 6 6 7 7 6 7 7 6 7 10 8 5 6 6 8 9 9 10 12 15 15 16 15 15 16 16 15 16 18 18 18 19 18 17 18 16 14 14 14 14 13 11 12 14 18 22 24 21 19 19 20 22 22 22 22 22 23 24 25 25 24 24 24 25 26 25 25 25 19 13 8 9 12 14 12 9 10 9 7 6 6 8 8
9 7 6 6 6 6 7 8 8 9 11 10 7 3 6 4 4 5 7 8 9 12 15 15 16 16 14 15 17 17 17 18 16 16 18 19 19 19 17 16 16 16 17 17 17 18 19 20 24 23 16 13 17 22 24 24 23 21 22 23 23 24 24 24 23 23 26 27 24 24 24 19 13 11 9 9 12 13 13 9 6 7 9 8 9 10
10 8 6 6 6 5 6 8 8 8 8 4 2 5 4 1 1 2 6 9 9 12 13 13 15 16 16 16 18 18 17 16 15 13 15 18 20 19 19 19 21 22 23 23 24 25 25 24 24 22 16 15 20 25 25 24 21 20 20 21 22 22 22 23 22 22 27 30 25 23 25 22 16 12 9 9 11 11 13 12 9 8 10 9 6 6
11 8 7 6 6 6 7 8 7 6 6 4 1 0 2 2 4 3 6 7 6 7 11 14 16 17 16 16 18 16 14 14 14 13 15 18 20 20 20 20 21 23 27 28 25 24 27 29 27 23 18 16 17 20 23 23 19 17 18 20 21 20 20 21 20 21 27 32 28 22 22 22 18 11 9 11 12 11 11 11 10 9 9 9 9 11
11 8 7 8 8 8 8 8 6 6 6 7 6 5 3 5 6 4 7 7 6 11 14 15 16 17 16 17 17 14 13 13 14 14 17 20 21 21 21 21 21 23 27 29 24 20 24 30 30 24 20 18 17 18 20 20 17 14 16 19 19 18 18 18 21 27 31 31 26 18 16 17 15 9 10 13 14 13 12 11 10 10 11 13 15 16
8 7 7 9 9 9 10 9 7 6 5 5 5 3 4 5 2 5 8 6 10 14 15 15 17 18 18 18 15 13 13 16 18 19 21 22 22 23 24 27 27 26 27 29 27 22 20 25 28 26 23 22 22 21 19 17 15 13 14 18 18 17 19 21 26 31 32 29 23 13 16 19 17 11 10 13 14 13 12 11 10 10 12 14 15 14
7 7 8 9 9 8 8 8 7 6 2 2 2 1 1 1 5 6 7 10 14 16 17 17 18 19 19 19 16 14 16 19 21 22 23 24 22 23 24 23 22 23 25 31 34 29 21 21 23 23 22 23 22 22 20 16 12 11 13 16 17 17 21 26 29 30 30 29 22 9 13 20 20 16 14 14 14 13 12 11 8 8 9 11 12 12
5 6 6 7 6 6 6 7 7 6 1 4 4 2 2 4 5 7 10 13 14 16 17 18 17 17 18 18 17 18 20 21 21 22 23 22 21 23 21 14 13 18 22 28 34 28 21 21 21 18 23 27 24 21 19 13 9 9 12 15 16 17 21 27 31 33 35 32 21 9 11 16 19 19 16 15 15 14 13 11 8 6 5 6 8 9
5 6 5 5 4 4 6 6 4 4 3 5 6 5 5 6 8 9 11 13 14 15 15 15 15 17 18 18 19 20 20 21 22 22 21 19 20 22 18 8 9 19 25 28 30 23 19 22 20 15 22 27 23 19 18 12 8 9 12 14 16 16 19 26 30 34 38 33 21 15 16 14 17 17 14 15 14 13 13 12 10 9 7 5 6 6
4 3 4 4 4 4 5 6 6 8 8 8 7 7 9 11 10 11 13 13 13 13 13 13 16 19 19 19 20 21 19 19 22 22 18 17 21 23 19 14 17 23 25 26 27 24 21 22 19 17 22 23 19 18 18 11 9 10 11 14 15 14 16 24 28 31 35 32 22 16 18 17 15 12 12 14 12 11 12 11 10 9 8 7 6 4
5 3 3 3 4 6 8 9 9 9 9 9 9 9 11 12 11 12 13 12 12 14 15 15 18 19 20 20 21 19 18 20 23 20 16 16 20 21 20 19 20 24 25 24 22 21 22 22 18 17 21 22 18 18 17 12 11 12 11 12 15 13 13 20 25 28 31 32 23 15 19 15 12 10 9 10 10 9 9 8 8 8 6 6 5 4
9 9 7 5 4 4 5 6 7 8 9 11 12 11 11 12 12 12 11 12 14 17 18 19 20 20 20 20 19 17 17 21 22 18 14 15 17 18 18 17 16 18 21 21 20 19 21 21 18 16 19 21 18 15 16 13 9 11 11 11 12 11 10 16 22 24 27 32 26 17 18 12 10 10 9 8 8 9 9 8 7 7 5 4 3 3
4 5 5 7 7 6 7 9 10 11 11 11 10 10 10 12 14 15 14 15 17 19 20 20 20 18 16 15 17 17 19 21 17 14 15 15 13 13 15 14 15 17 18 19 20 19 18 18 17 16 17 19 17 13 15 14 8 11 11 11 10 11 9 14 20 22 25 32 27 14 15 12 9 10 11 11 11 11 12 11 9 9 9 6 3 2
4 4 3 5 6 7 10 11 10 9 9 9 10 11 12 13 15 18 18 18 18 20 20 18 16 15 14 15 15 16 19 20 15 12 15 15 12 11 12 12 15 18 17 18 19 19 17 17 17 15 14 17 16 14 16 14 8 11 12 10 9 11 10 11 18 21 25 30 25 13 6 2 7 12 12 11 11 11 10 7 3 3 5 8 8 4
5 4 5 6 7 7 7 7 7 7 7 9 11 14 15 15 17 18 18 18 19 19 19 18 18 18 17 17 17 16 16 18 17 14 14 13 11 12 13 13 15 16 16 17 17 17 17 16 14 13 13 15 16 15 16 15 8 11 12 9 8 12 13 11 12 16 21 23 21 21 21 14 5 1 3 5 4 1 2 1 3 6 4 5 11 8
7 7 7 6 7 7 8 9 9 7 8 10 12 15 15 15 16 16 17 18 18 18 18 19 20 20 18 18 19 18 14 15 18 17 15 13 13 16 16 15 15 15 15 16 16 15 16 15 10 9 12 15 15 14 15 15 10 12 13 10 7 10 14 14 11 11 14 16 17 19 20 17 14 13 14 15 14 13 9 3 3 2 3 0 5 6
Wind_Direction
218 268 278 275 290 316 357 358 335 332 330 318 310 300 298 298 291 293 298 315 337 325 301 302 311 304 294 294 294 292 292 288 285 280 272 278 289 349 48 73 85 91 85 58 45 37 28 26 26 72 98 319 282 256 228 209 205 199 189 186 181 178 181 178 174 176 178 175 173 175 183 192 195 199 203 205 208 208 209 209 206 204 201 198 200 203
226 267 281 273 304 357 5 344 323 316 308 299 296 291 285 285 295 305 308 320 337 331 312 319 323 308 294 295 295 293 292 284 280 281 275 272 271 73 72 74 76 72 67 56 53 50 39 35 36 75 148 177 265 267 243 214 212 208 197 191 184 180 182 184 180 179 185 188 185 181 182 188 191 194 196 198 201 203 202 203 205 205 202 199 202 206
246 259 270 272 346 356 327 313 308 302 292 279 273 276 275 287 304 300 303 329 343 342 315 310 311 301 292 287 281 281 287 281 274 284 281 273 278 82 78 72 69 65 60 54 54 48 45 67 93 115 191 189 237 259 246 219 213 212 204 197 191 185 185 189 186 183 188 194 195 191 188 187 188 193 197 197 197 198 200 205 206 202 200 200 203 207
277 290 297 320 17 325 306 307 302 292 283 278 279 284 293 313 314 306 334 348 332 308 292 291 286 281 286 282 275 289 309 309 280 284 289 288 32 81 79 69 66 62 48 43 49 33 22 33 98 125 170 260 284 279 264 236 217 210 209 206 198 192 191 192 191 189 190 194 198 198 194 191 192 194 196 198 197 195 198 205 206 202 200 200 201 204
289 301 333 350 347 313 310 308 299 291 291 303 302 289 299 322 324 319 327 328 309 289 286 290 286 288 304 297 294 312 319 314 293 285 293 12 86 87 81 70 68 64 46 39 36 27 25 18 40 95 89 349 314 288 268 251 232 211 209 212 206 198 196 197 197 195 192 194 198 199 195 192 195 193 190 195 195 194 198 202 203 204 202 201 201 201
280 295 329 326 306 305 304 299 295 297 309 311 307 319 335 331 322 313 310 308 299 289 299 309 307 306 306 297 298 301 289 300 321 321 323 31 88 98 93 83 74 64 56 48 37 31 32 19 25 63 66 321 285 270 250 239 241 228 213 210 209 203 200 203 202 198 194 194 197 199 195 189 192 191 186 193 194 192 198 200 202 206 204 203 203 204
274 288 286 288 297 297 295 295 299 313 329 308 314 334 333 319 308 303 305 304 299 300 301 298 290 293 304 302 306 302 284 302 335 326 315 47 79 86 79 75 77 74 66 54 45 40 35 23 23 28 9 317 284 288 270 231 237 244 231 213 207 206 205 207 207 203 198 196 198 201 200 194 195 195 191 195 195 194 198 200 201 205 206 206 205 206
301 294 295 321 335 326 298 300 323 338 332 298 313 320 311 306 305 302 304 300 288 287 284 277 277 297 309 302 308 315 306 300 313 320 351 63 67 63 45 34 49 75 80 61 54 51 39 30 27 9 349 337 320 316 308 260 236 247 251 232 210 205 206 210 210 208 204 199 200 202 204 202 201 202 198 196 198 200 201 201 201 202 204 205 204 205
312 304 310 326 324 311 309 327 342 336 314 299 307 303 298 298 290 284 280 271 268 267 276 289 292 296 299 307 337 356 329 324 45 75 66 59 56 58 40 18 18 44 69 66 61 56 41 29 20 4 350 341 331 326 317 289 245 238 256 259 232 211 207 210 211 212 210 207 205 204 206 208 207 207 204 197 199 203 201 199 200 199 200 202 203 205
287 287 299 308 296 306 340 344 332 314 294 291 291 286 286 278 272 276 274 274 283 282 291 300 291 286 298 314 355 7 319 329 6 62 74 68 65 62 41 23 17 24 49 62 64 56 39 23 11 4 359 350 342 339 330 307 268 234 244 259 250 226 213 212 211 213 214 212 210 209 210 211 210 209 207 198 195 197 197 197 197 197 200 202 202 204
274 257 253 299 321 337 345 331 309 298 299 300 290 287 291 286 288 296 291 293 297 292 293 290 289 296 293 299 338 5 31 6 7 58 69 57 58 58 44 36 34 32 42 55 61 54 38 23 15 11 2 351 348 345 336 321 301 265 244 251 257 246 227 219 215 215 217 217 215 215 215 215 214 212 209 203 196 192 192 195 196 197 199 201 203 203
299 261 191 94 42 357 332 316 308 311 324 328 317 306 306 309 312 299 299 314 298 288 300 312 333 340 315 329 21 43 54 39 32 50 53 47 45 46 47 43 42 44 40 41 51 47 36 25 19 14 2 353 351 347 339 329 316 299 273 259 261 257 243 231 224 217 217 220 221 220 220 220 220 216 211 208 202 192 190 194 196 196 198 199 200 200
310 302 10 101 90 28 336 315 324 325 337 336 317 317 320 308 313 313 313 316 288 285 320 336 344 347 320 331 27 62 70 62 58 53 50 52 45 41 45 39 38 44 37 34 47 44 29 20 18 11 1 355 351 346 340 331 322 311 296 279 272 273 269 260 250 238 227 223 226 227 226 225 223 222 217 214 212 203 197 197 196 195 197 197 195 197
304 321 1 8 70 33 340 319 336 332 335 322 305 319 317 304 321 322 303 300 289 294 327 335 333 334 313 321 6 60 76 73 72 65 56 54 47 42 43 36 32 37 34 29 36 44 34 19 14 6 357 354 349 344 337 330 326 318 309 307 309 310 310 305 298 290 271 246 236 233 233 233 228 225 223 219 218 213 204 201 199 198 199 197 196 197
308 311 43 18 355 354 336 336 344 331 317 300 302 307 296 318 348 316 306 315 308 305 316 323 323 321 314 326 357 74 94 78 71 69 61 59 53 44 42 37 27 25 25 19 18 28 29 18 14 6 355 352 347 340 335 331 327 323 324 332 331 321 313 306 306 312 308 291 275 262 250 243 235 230 230 226 224 219 210 204 202 202 203 201 201 199
298 284 34 23 346 328 333 348 341 329 310 301 329 311 297 353 353 303 301 302 299 303 304 300 293 288 295 6 40 69 88 73 65 58 43 43 39 29 25 21 16 16 18 15 14 16 14 10 8 4 357 352 344 337 335 333 330 330 335 336 324 318 311 301 296 303 307 299 292 293 287 270 252 239 234 231 230 226 218 211 206 207 207 206 205 201
298 291 332 348 337 326 337 341 326 316 301 314 322 300 322 347 324 295 295 294 293 289 287 289 281 284 289 46 63 57 56 56 44 36 37 32 29 28 25 18 16 18 16 13 13 11 9 8 4 359 356 351 343 339 339 338 337 337 340 340 335 334 328 312 301 298 297 286 276 281 294 293 278 259 243 234 232 230 226 221 214 212 212 212 210 202
322 301 312 325 322 325 337 328 306 284 262 267 286 300 337 329 295 281 286 288 291 279 280 290 288 302 308 335 72 62 56 49 30 36 44 37 32 32 26 19 17 16 12 9 9 7 6 6 4 0 356 353 353 353 350 346 344 343 345 350 352 349 336 323 316 312 307 295 279 267 275 296 296 279 262 246 234 228 228 227 220 215 215 216 213 204
323 300 297 308 309 325 339 320 298 279 246 230 272 307 324 301 285 290 285 289 294 287 286 282 280 290 290 287 55 51 49 52 41 41 42 35 34 29 20 16 13 12 10 6 3 1 2 0 -0 0 357 357 360 358 354 351 349 349 348 349 351 349 343 334 329 326 318 307 294 272 263 279 292 284 277 273 260 243 232 226 224 222 220 219 215 206
306 290 285 301 313 328 331 295 286 297 286 277 305 308 298 292 297 288 277 285 290 293 300 295 292 283 267 310 35 52 55 53 47 42 36 34 32 25 19 15 8 7 6 3 359 356 356 355 356 358 358 358 0 359 357 355 352 352 352 350 344 340 342 339 333 333 330 317 305 290 268 264 276 277 273 275 279 275 258 236 230 231 227 224 219 209
279 265 278 298 314 318 297 269 292 317 324 312 306 304 299 299 299 290 284 284 282 286 292 296 297 286 293 343 23 60 67 58 52 46 31 26 23 18 17 12 6 5 359 355 356 352 352 353 352 353 353 354 358 359 358 355 352 353 355 353 344 336 335 334 327 325 325 313 306 306 291 267 266 273 274 266 262 272 272 255 247 247 240 231 223 212
317 280 294 297 301 294 278 289 303 300 308 315 305 297 292 288 292 291 287 285 287 290 290 292 287 280 322 346 355 52 72 61 53 45 29 18 13 9 9 4 2 2 354 349 348 345 348 353 350 347 346 350 355 355 355 354 352 353 354 352 347 340 334 328 323 319 312 297 290 298 302 290 268 257 266 266 255 256 254 242 238 242 246 243 232 219
9 292 282 278 273 273 277 280 279 277 289 304 285 277 274 280 291 288 288 299 302 294 295 295 280 277 318 331 329 60 92 81 61 47 27 15 9 4 359 355 353 349 345 342 341 339 340 340 338 337 341 347 348 347 350 352 350 352 352 351 349 344 336 326 321 320 311 294 286 286 289 292 275 252 247 254 256 257 250 237 229 227 236 247 243 235
11 273 268 277 275 276 278 274 258 243 237 245 267 277 280 302 319 314 308 312 303 287 288 281 268 273 306 317 313 26 108 96 70 58 30 3 360 355 345 343 340 335 334 331 330 335 334 328 325 328 338 344 344 341 342 344 346 347 347 349 351 347 340 331 324 324 318 297 291 295 288 287 283 268 251 243 249 256 252 244 238 231 230 233 239 247
342 281 299 302 295 291 288 282 240 199 223 286 314 312 301 311 320 315 308 305 288 278 277 270 264 275 294 300 301 305 308 320 347 28 29 359 345 338 333 334 332 329 330 328 326 330 332 330 329 332 335 337 339 337 334 334 337 340 340 343 349 346 341 336 328 325 324 312 303 307 299 289 284 277 265 249 249 257 255 248 243 240 237 227 227 246
295 276 286 281 282 292 294 300 325 331 314 309 309 305 304 309 311 306 301 287 272 275 275 268 270 282 290 298 304 309 316 319 324 340 351 342 339 335 328 325 326 328 327 325 325 327 328 331 334 335 333 331 333 333 330 330 331 334 335 336 341 342 339 337 331 324 321 318 320 323 305 288 279 277 274 261 250 254 257 253 249 247 245 234 219 229
278 258 254 255 261 273 279 290 311 316 305 296 295 296 297 298 297 294 287 273 275 286 278 270 279 288 294 304 306 305 309 312 315 322 325 329 340 337 322 314 319 326 322 321 324 325 325 328 334 336 334 332 330 326 325 327 328 331 334 334 338 340 337 336 333 328 321 316 328 342 324 303 289 277 273 267 251 245 252 256 257 254 249 242 225 214
262 254 256 263 264 271 280 286 294 294 286 285 288 289 288 288 286 278 269 270 278 282 272 275 290 293 293 299 300 302 311 315 315 318 324 330 328 317 308 311 318 320 316 314 318 323 324 327 337 342 335 331 326 322 322 324 326 329 331 331 333 334 334 333 330 327 321 312 312 330 340 335 316 288 272 270 260 249 250 248 247 250 246 242 236 220
263 269 272 281 278 280 282 281 284 283 280 281 281 280 279 276 272 267 265 269 272 271 275 287 292 287 289 300 307 314 320 318 317 322 329 324 309 302 307 313 314 312 311 311 315 318 317 319 333 339 328 324 323 321 322 322 323 325 326 327 328 329 330 331 326 322 319 309 298 299 323 347 332 307 284 275 269 263 261 247 239 245 247 242 237 231
277 268 276 287 284 283 283 280 281 277 273 273 271 270 271 270 269 268 269 272 272 271 274 281 283 283 294 311 314 317 320 318 320 321 316 306 301 305 310 307 305 307 307 308 310 312 312 316 326 326 320 320 321 321 321 319 320 322 322 324 325 325 326 327 324 319 315 311 295 281 288 336 340 322 308 289 274 266 263 252 241 244 250 245 231 221
210 256 286 293 287 282 277 274 271 268 271 276 276 277 278 278 275 271 272 276 276 278 285 292 292 293 305 316 316 319 320 314 309 304 302 302 305 309 307 303 305 306 305 306 308 308 310 313 317 317 318 319 318 317 317 318 320 321 321 322 321 322 323 321 322 318 311 311 302 275 262 286 346 340 327 306 286 274 266 256 240 233 237 241 229 215
231 259 282 281 277 278 276 277 279 283 289 287 283 281 277 276 279 280 285 293 296 300 305 305 299 298 312 318 314 312 308 304 303 305 306 304 301 302 302 302 302 301 302 304 302 301 303 303 308 313 317 317 315 315 316 318 321 320 319 321 320 320 320 316 317 316 307 306 305 280 257 256 285 356 349 327 312 299 274 256 235 223 227 226 204 202
256 269 277 271 275 280 282 288 294 299 294 284 284 291 286 286 294 296 296 297 300 305 305 298 296 302 310 308 304 303 302 302 303 304 303 301 302 304 304 302 301 303 304 302 301 306 306 303 307 311 312 312 310 311 314 316 318 318 318 319 319 317 316 312 311 312 304 301 304 291 266 249 225 169 49 356 336 323 269 235 212 205 209 203 198 195
252 258 263 264 270 278 286 295 299 289 274 267 22 355 315 308 304 299 299 301 303 304 297 293 296 300 304 303 303 302 300 299 301 303 305 307 309 308 302 298 299 300 302 308 317 320 316 311 312 309 304 305 306 309 311 311 313 317 316 316 317 316 312 307 306 308 302 298 302 294 273 247 205 162 131 73 356 349 4 78 174 169 155 140 187 206
246 249 255 260 262 274 289 293 284 270 260 168 50 316 324 346 337 319 310 308 308 302 297 297 298 301 304 299 293 292 296 305 309 306 304 304 301 300 298 300 303 301 303 315 322 315 310 308 305 300 296 298 301 304 305 306 312 316 313 312 316 316 312 306 304 304 299 296 299 291 271 248 220 178 151 140 125 72 43 33 35 51 83 103 91 89
240 244 250 258 260 270 279 267 255 270 302 309 296 303 7 35 0 333 311 300 303 301 299 299 295 293 293 289 291 300 310 314 310 301 300 302 300 300 302 306 311 308 307 310 303 292 292 294 294 294 295 297 301 302 302 303 308 311 310 311 314 316 315 309 306 305 300 296 295 287 271 252 236 219 178 150 136 121 88 46 31 36 63 114 120 111
233 239 246 255 256 260 267 264 264 280 296 297 296 359 53 32 348 337 307 294 296 289 284 282 283 290 297 299 305 313 312 308 303 298 300 304 303 305 311 316 318 316 313 310 302 290 284 289 297 300 295 289 293 294 292 294 301 306 308 309 312 316 317 311 308 312 311 304 293 280 272 263 245 224 198 156 130 125 125 110 73 50 55 80 113 121
223 232 242 251 253 255 264 272 275 276 283 291 99 97 76 17 5 332 298 291 281 273 276 290 306 321 327 318 314 315 311 304 298 294 299 306 310 313 316 316 313 310 307 308 310 306 299 298 301 298 289 279 280 282 282 285 295 303 304 305 310 316 316 308 306 315 318 313 298 272 263 262 249 220 185 147 124 116 119 120 113 91 72 69 85 106
219 227 241 252 260 263 261 266 268 266 277 295 312 330 333 28 57 3 304 286 284 303 324 332 333 334 331 322 317 316 309 298 292 294 303 309 310 310 308 306 303 302 302 303 307 314 314 308 299 292 286 275 265 271 280 284 290 298 300 303 309 314 312 305 306 314 316 312 300 274 255 256 247 211 156 130 122 111 101 95 90 84 72 58 59 68
225 230 238 243 246 246 245 255 262 258 269 286 292 307 351 50 50 348 283 276 328 348 344 334 325 321 317 313 311 305 298 295 294 301 309 307 305 305 303 301 299 297 297 297 299 310 317 311 300 293 290 282 273 275 281 284 288 294 298 303 307 309 308 304 309 318 319 311 300 275 242 245 249 214 150 129 120 110 102 93 82 69 60 58 64 67
225 226 232 239 244 246 246 253 262 264 274 290 298 342 48 56 17 274 267 302 340 336 327 321 317 313 310 308 306 299 297 300 298 301 304 303 301 301 299 298 300 303 308 310 306 304 305 299 295 294 292 290 289 288 283 281 286 289 295 302 302 302 308 313 317 322 320 310 298 264 214 223 236 216 166 143 133 124 117 107 88 70 64 67 69 67
218 220 229 241 247 251 253 259 272 280 297 37 9 16 88 246 260 267 298 326 327 318 314 313 309 307 306 305 304 300 300 302 302 302 302 300 300 300 298 302 312 321 326 318 305 297 295 290 290 296 298 292 289 288 283 278 279 284 292 297 296 300 314 324 325 323 318 309 302 266 211 221 220 200 180 164 154 150 146 140 120 88 78 77 75 70
233 236 243 247 245 251 255 257 266 265 206 70 25 315 223 248 284 307 317 315 312 309 309 307 306 308 309 307 306 306 305 303 302 301 301 302 303 300 301 314 326 316 306 295 289 292 300 294 288 297 303 297 290 288 286 276 266 275 286 293 296 304 320 330 330 327 326 322 315 287 247 231 205 187 177 161 151 148 150 156 158 138 108 89 86 83
248 246 253 250 237 243 247 243 262 295 354 21 356 309 279 288 300 308 309 306 307 309 308 307 309 311 312 311 307 305 303 301 300 300 301 304 304 301 301 312 300 291 288 284 284 288 288 283 281 288 292 287 281 281 281 267 246 261 279 289 297 309 326 333 332 331 331 330 323 296 269 232 193 181 165 146 142 142 140 142 143 140 142 132 108 96
264 287 305 292 268 278 285 286 307 323 326 327 317 297 297 303 306 311 312 309 308 311 310 308 309 308 308 308 303 300 300 298 297 298 300 301 300 299 298 296 293 295 296 293 292 293 288 286 293 298 289 281 278 282 280 259 229 243 267 284 294 310 332 335 333 331 327 326 324 292 255 221 186 170 152 144 142 135 131 132 127 123 130 133 127 118
256 268 301 312 311 315 306 291 289 300 306 307 306 303 307 312 314 316 315 310 309 311 309 306 306 305 304 302 300 298 298 298 297 297 294 291 292 294 294 296 299 303 302 299 300 304 301 295 295 295 291 286 283 284 282 262 230 231 254 280 290 302 328 333 329 325 321 322 321 283 243 215 172 153 146 144 142 132 129 130 122 116 118 124 134 149
257 256 252 253 267 287 288 283 289 298 297 298 303 304 307 314 320 322 320 317 315 312 309 306 304 301 301 301 298 294 292 296 299 299 291 285 289 296 299 298 299 302 301 302 304 303 299 294 289 292 296 292 286 285 288 277 234 220 248 274 280 286 316 328 321 318 319 319 310 266 231 210 170 161 159 153 153 151 148 143 133 129 128 121 134 152
297 314 279 248 245 254 265 275 285 289 290 300 316 323 322 323 324 321 317 315 313 310 308 307 304 302 301 299 297 295 295 297 299 298 296 296 297 300 300 297 297 299 295 293 295 295 292 290 289 292 296 292 286 288 294 286 235 210 242 265 264 267 293 318 316 314 316 314 304 260 212 205 192 181 176 177 184 179 166 162 162 157 152 146 143 138
339 353 299 268 267 266 264 273 290 307 312 321 331 330 325 322 319 317 315 314 313 310 308 308 307 308 306 300 297 298 299 300 299 296 300 304 300 295 298 298 300 300 294 288 291 294 292 289 290 289 287 285 286 291 294 287 238 206 232 252 248 250 267 301 314 315 314 314 321 342 356 281 197 191 191 188 192 190 173 153 119 111 141 155 161 164
295 272 262 267 264 261 272 305 341 345 322 316 321 320 318 319 317 317 317 317 317 318 317 315 314 314 312 308 307 307 304 304 304 299 298 303 299 297 306 310 305 300 295 290 293 295 292 292 294 297 296 295 295 292 288 284 246 204 220 241 235 238 254 279 302 310 311 316 333 351 352 351 2 346 359 28 27 278 194 172 339 347 8 139 159 172
270 260 259 262 262 278 313 337 344 328 305 305 312 312 313 316 317 317 320 320 323 326 326 322 319 318 316 314 315 314 311 313 317 312 305 306 308 309 313 316 311 305 299 296 297 296 293 293 295 295 293 294 294 291 287 284 255 203 213 239 232 226 247 268 285 297 305 317 333 342 343 350 5 11 14 18 13 3 359 345 215 247 338 223 179 193